| time (UTC) | temp F | wind direction | speed knots | gust knots | rain 1hr in | rain 24hr in | rain mn in | humidity % | barometer mb |
| 20260504003059 | 49 | 159 | 3.5 | 6.1 | 0.00 | 0.03 | 0.03 | 29 | 1011.8 |
| 20260504001554 | 49 | 162 | 3.5 | 6.1 | 0.00 | 0.03 | 0.03 | 23 | 1011.9 |
| 20260504000119 | 49 | 163 | 1.7 | 4.3 | 0.00 | 0.03 | 0.03 | 19 | 1012.1 |
| 20260503234552 | 49 | 158 | 2.6 | 5.2 | 0.00 | 0.03 | 0.03 | 21 | 1012.2 |
| 20260503233041 | 48 | 161 | 2.6 | 5.2 | 0.00 | 0.03 | 0.03 | 8 | 1012.1 |
| 20260503231537 | 47 | 156 | 3.5 | 7.0 | 0.00 | 0.03 | 0.03 | 1 | 1012.0 |
| 20260503230032 | 47 | 161 | 3.5 | 7.0 | 0.00 | 0.03 | 0.03 | 1 | 1012.3 |
| 20260503224529 | 47 | 154 | 3.5 | 7.0 | 0.00 | 0.03 | 0.03 | 1 | 1012.2 |
| 20260503223025 | 46 | 160 | 3.5 | 6.1 | 0.00 | 0.03 | 0.03 | 1 | 1012.5 |
| 20260503221519 | 45 | 166 | 4.3 | 7.0 | 0.00 | 0.03 | 0.03 | 1 | 1012.5 |
| 20260503220015 | 45 | 167 | 2.6 | 6.1 | 0.02 | 0.03 | 0.03 | 1 | 1013.0 |
| 20260503214510 | 44 | 158 | 2.6 | 5.2 | 0.02 | 0.03 | 0.03 | 1 | 1013.2 |
| 20260503213006 | 44 | 156 | 3.5 | 5.2 | 0.03 | 0.03 | 0.03 | 1 | 1013.6 |
| 20260503211501 | 44 | 159 | 1.7 | 4.3 | 0.03 | 0.03 | 0.03 | 1 | 1013.9 |
| 20260503210057 | 45 | 194 | 0.0 | 6.1 | 0.01 | 0.01 | 0.01 | 1 | 1014.5 |
| 20260503204553 | 47 | 213 | 4.3 | 11.3 | 0.01 | 0.01 | 0.01 | 1 | 1015.1 |
| 20260503203105 | 49 | 216 | 9.6 | 18.2 | 0.00 | 0.00 | 0.00 | 33 | 1015.5 |
| 20260503201547 | 52 | 360 | 12.2 | 22.6 | 0.00 | 0.00 | 0.00 | 59 | 1015.3 |
| 20260503200046 | 56 | 306 | 10.4 | 19.1 | 0.00 | 0.00 | 0.00 | 49 | 1014.9 |
| 20260503194553 | 57 | 220 | 8.7 | 12.2 | 0.00 | 0.00 | 0.00 | 45 | 1014.7 |
| 20260503193050 | 58 | 223 | 9.6 | 15.6 | 0.00 | 0.00 | 0.00 | 45 | 1014.8 |
| 20260503191544 | 58 | 255 | 8.7 | 15.6 | 0.00 | 0.00 | 0.00 | 43 | 1014.8 |
| 20260503190045 | 58 | 247 | 7.8 | 12.2 | 0.00 | 0.00 | 0.00 | 44 | 1014.8 |
| 20260503184541 | 58 | 360 | 7.0 | 13.9 | 0.00 | 0.00 | 0.00 | 43 | 1014.9 |
| 20260503183040 | 58 | 213 | 12.2 | 19.1 | 0.00 | 0.00 | 0.00 | 42 | 1015.2 |
| 20260503181539 | 59 | 248 | 8.7 | 13.9 | 0.00 | 0.00 | 0.00 | 43 | 1015.4 |
| 20260503180036 | 58 | 212 | 6.1 | 16.5 | 0.00 | 0.00 | 0.00 | 44 | 1015.6 |
| 20260503174534 | 58 | 217 | 9.6 | 17.4 | 0.00 | 0.00 | 0.00 | 45 | 1015.8 |
| 20260503173047 | 58 | 238 | 10.4 | 20.9 | 0.00 | 0.00 | 0.00 | 44 | 1016.1 |
| 20260503171535 | 58 | 218 | 9.6 | 16.5 | 0.00 | 0.00 | 0.00 | 43 | 1016.3 |
| 20260503081513 | 38 | 212 | 1.7 | 4.3 | 0.00 | 0.00 | 0.00 | 45 | 1017.6 |
| 20260503071605 | 37 | 237 | 0.0 | 0.9 | 0.00 | 0.00 | 0.00 | 38 | 1017.7 |
| 20260503070104 | 37 | 237 | 0.9 | 3.5 | 0.00 | 0.00 | 0.00 | 35 | 1017.8 |
| 20260503060105 | 37 | 239 | 0.0 | 0.0 | 0.00 | 0.00 | 0.00 | 36 | 1018.3 |
| 20260503054548 | 38 | 239 | 0.0 | 0.9 | 0.00 | 0.00 | 0.00 | 33 | 1018.3 |
| 20260503053046 | 38 | 239 | 0.0 | 1.7 | 0.00 | 0.00 | 0.00 | 37 | 1018.4 |
| 20260503051544 | 38 | 239 | 0.0 | 0.0 | 0.00 | 0.00 | 0.00 | 42 | 1018.5 |
| 20260503050043 | 38 | 239 | 0.0 | 0.0 | 0.00 | 0.00 | 0.00 | 43 | 1018.4 |
| 20260503044541 | 39 | 239 | 0.0 | 1.7 | 0.00 | 0.00 | 0.00 | 43 | 1018.4 |
| 20260503043039 | 39 | 239 | 0.0 | 1.7 | 0.00 | 0.00 | 0.00 | 44 | 1018.4 |
| 20260503041538 | 39 | 267 | 0.0 | 0.0 | 0.00 | 0.00 | 0.00 | 44 | 1018.3 |
| 20260503040037 | 39 | 267 | 0.0 | 0.0 | 0.00 | 0.00 | 0.00 | 46 | 1018.4 |
| 20260503034531 | 40 | 267 | 0.0 | 0.0 | 0.00 | 0.00 | 0.00 | 49 | 1018.4 |
| 20260503033048 | 40 | 267 | 0.0 | 0.0 | 0.00 | 0.00 | 0.00 | 50 | 1018.4 |
| 20260503031528 | 40 | 331 | 0.0 | 0.0 | 0.00 | 0.00 | 0.00 | 52 | 1018.4 |
| 20260503030022 | 41 | 331 | 0.0 | 0.0 | 0.00 | 0.00 | 0.00 | 56 | 1018.4 |
| 20260503024513 | 41 | 332 | 0.0 | 0.0 | 0.00 | 0.00 | 0.00 | 57 | 1018.4 |
| 20260503023026 | 42 | 332 | 0.0 | 0.0 | 0.00 | 0.00 | 0.00 | 60 | 1018.4 |
| 20260503021504 | 42 | 332 | 0.0 | 0.9 | 0.00 | 0.00 | 0.00 | 60 | 1018.4 |
| 20260503020114 | 43 | 332 | 0.0 | 0.0 | 0.00 | 0.00 | 0.00 | 58 | 1018.3 |
| 20260503014556 | 43 | 332 | 0.0 | 0.0 | 0.00 | 0.00 | 0.00 | 60 | 1018.2 |
| 20260503013102 | 44 | 332 | 0.0 | 1.7 | 0.00 | 0.00 | 0.00 | 60 | 1018.2 |
| 20260503011559 | 44 | 332 | 0.0 | 1.7 | 0.00 | 0.00 | 0.00 | 58 | 1018.1 |
| 20260503010052 | 45 | 332 | 0.0 | 0.0 | 0.00 | 0.00 | 0.00 | 55 | 1018.0 |
| 20260503004541 | 46 | 344 | 0.0 | 0.0 | 0.00 | 0.00 | 0.00 | 52 | 1017.9 |